Year,Month,Day,Hour,Minute,Value (Times are PST for temperature in C)
2011,08,20,00,00,15.00
2011,08,20,00,01,15.00
2011,08,20,00,02,15.00
2011,08,20,00,03,15.00
2011,08,20,00,04,15.00
2011,08,20,00,05,15.00
2011,08,20,00,06,15.00
2011,08,20,00,07,15.00
2011,08,20,00,08,15.00
2011,08,20,00,09,15.00
2011,08,20,00,10,15.00
2011,08,20,00,11,15.00
2011,08,20,00,12,15.00
2011,08,20,00,13,15.00
2011,08,20,00,14,15.00
2011,08,20,00,15,15.00
2011,08,20,00,16,15.00
2011,08,20,00,17,15.00
2011,08,20,00,18,15.00
2011,08,20,00,19,15.00
2011,08,20,00,20,15.00
2011,08,20,00,21,15.00
2011,08,20,00,22,15.00
2011,08,20,00,23,15.00
2011,08,20,00,24,15.00
2011,08,20,00,25,15.00
2011,08,20,00,26,15.00
2011,08,20,00,27,15.00
2011,08,20,00,28,15.00
2011,08,20,00,29,15.00
2011,08,20,00,30,15.00
2011,08,20,00,31,15.00
2011,08,20,00,32,15.00
2011,08,20,00,33,15.00
2011,08,20,00,34,15.00
2011,08,20,00,35,15.00
2011,08,20,00,36,15.00
2011,08,20,00,37,15.00
2011,08,20,00,38,15.00
2011,08,20,00,39,15.00
2011,08,20,00,40,15.00
2011,08,20,00,41,15.00
2011,08,20,00,42,14.90
2011,08,20,00,43,14.90
2011,08,20,00,44,14.90
2011,08,20,00,45,15.00
2011,08,20,00,46,15.00
2011,08,20,00,47,15.00
2011,08,20,00,48,15.00
2011,08,20,00,49,15.00
2011,08,20,00,50,15.00
2011,08,20,00,51,14.90
2011,08,20,00,52,14.80
2011,08,20,00,53,14.80
2011,08,20,00,54,14.70
2011,08,20,00,55,14.70
2011,08,20,00,56,14.80
2011,08,20,00,57,14.80
2011,08,20,00,58,14.90
2011,08,20,00,59,15.00
2011,08,20,01,00,15.00
2011,08,20,01,01,15.00
2011,08,20,01,02,15.00
2011,08,20,01,03,15.00
2011,08,20,01,04,15.00
2011,08,20,01,05,15.00
2011,08,20,01,06,15.00
2011,08,20,01,07,15.00
2011,08,20,01,08,15.00
2011,08,20,01,09,15.00
2011,08,20,01,10,15.00
2011,08,20,01,11,14.90
2011,08,20,01,12,14.90
2011,08,20,01,13,14.90
2011,08,20,01,14,14.80
2011,08,20,01,15,14.80
2011,08,20,01,16,14.80
2011,08,20,01,17,14.70
2011,08,20,01,18,14.70
2011,08,20,01,19,14.70
2011,08,20,01,20,14.70
2011,08,20,01,21,14.70
2011,08,20,01,22,14.70
2011,08,20,01,23,14.70
2011,08,20,01,24,14.70
2011,08,20,01,25,14.70
2011,08,20,01,26,14.70
2011,08,20,01,27,14.80
2011,08,20,01,28,14.80
2011,08,20,01,29,14.70
2011,08,20,01,30,14.70
2011,08,20,01,31,14.70
2011,08,20,01,32,14.70
2011,08,20,01,33,14.60
2011,08,20,01,34,14.60
2011,08,20,01,35,14.60
2011,08,20,01,36,14.60
2011,08,20,01,37,14.50
2011,08,20,01,38,14.50
2011,08,20,01,39,14.50
2011,08,20,01,40,14.40
2011,08,20,01,41,14.40
2011,08,20,01,42,14.40
2011,08,20,01,43,14.30
2011,08,20,01,44,14.30
2011,08,20,01,45,14.30
2011,08,20,01,46,14.30
2011,08,20,01,47,14.30
2011,08,20,01,48,14.20
2011,08,20,01,49,14.20
2011,08,20,01,50,14.20
2011,08,20,01,51,14.20
2011,08,20,01,52,14.20
2011,08,20,01,53,14.20
2011,08,20,01,54,14.20
2011,08,20,01,55,14.20
2011,08,20,01,56,14.10
2011,08,20,01,57,14.10
2011,08,20,01,58,14.10
2011,08,20,01,59,14.10
2011,08,20,02,00,14.10
2011,08,20,02,01,14.10
2011,08,20,02,02,14.10
2011,08,20,02,03,14.10
2011,08,20,02,04,14.10
2011,08,20,02,05,14.10
2011,08,20,02,06,14.10
2011,08,20,02,07,14.10
2011,08,20,02,08,14.10
2011,08,20,02,09,14.10
2011,08,20,02,10,14.10
2011,08,20,02,11,14.20
2011,08,20,02,12,14.20
2011,08,20,02,13,14.20
2011,08,20,02,14,14.30
2011,08,20,02,15,14.30
2011,08,20,02,16,14.30
2011,08,20,02,17,14.30
2011,08,20,02,18,14.30
2011,08,20,02,19,14.20
2011,08,20,02,20,14.20
2011,08,20,02,21,14.20
2011,08,20,02,22,14.20
2011,08,20,02,23,14.20
2011,08,20,02,24,14.20
2011,08,20,02,25,14.10
2011,08,20,02,26,14.10
2011,08,20,02,27,14.10
2011,08,20,02,28,14.10
2011,08,20,02,29,14.10
2011,08,20,02,30,14.00
2011,08,20,02,31,14.00
2011,08,20,02,32,14.00
2011,08,20,02,33,13.90
2011,08,20,02,34,13.90
2011,08,20,02,35,13.90
2011,08,20,02,36,13.80
2011,08,20,02,37,13.80
2011,08,20,02,38,13.80
2011,08,20,02,39,13.80
2011,08,20,02,40,13.70
2011,08,20,02,41,13.70
2011,08,20,02,42,13.60
2011,08,20,02,43,13.60
2011,08,20,02,44,13.50
2011,08,20,02,45,13.50
2011,08,20,02,46,13.40
2011,08,20,02,47,13.40
2011,08,20,02,48,13.30
2011,08,20,02,49,13.30
2011,08,20,02,50,13.30
2011,08,20,02,51,13.30
2011,08,20,02,52,13.30
2011,08,20,02,53,13.30
2011,08,20,02,54,13.30
2011,08,20,02,55,13.40
2011,08,20,02,56,13.40
2011,08,20,02,57,13.40
2011,08,20,02,58,13.40
2011,08,20,02,59,13.40
2011,08,20,03,00,13.40
2011,08,20,03,01,13.40
2011,08,20,03,02,13.40
2011,08,20,03,06,13.40
2011,08,20,03,07,13.40
2011,08,20,03,08,13.40
2011,08,20,03,09,13.40
2011,08,20,03,10,13.50
2011,08,20,03,11,13.50
2011,08,20,03,12,13.50
2011,08,20,03,13,13.50
2011,08,20,03,14,13.60
2011,08,20,03,15,13.60
2011,08,20,03,16,13.60
2011,08,20,03,17,13.60
2011,08,20,03,18,13.60
2011,08,20,03,19,13.60
2011,08,20,03,20,13.60
2011,08,20,03,21,13.60
2011,08,20,03,22,13.60
2011,08,20,03,23,13.60
2011,08,20,03,24,13.60
2011,08,20,03,25,13.60
2011,08,20,03,26,13.60
2011,08,20,03,27,13.60
2011,08,20,03,28,13.60
2011,08,20,03,29,13.60
2011,08,20,03,30,13.60
2011,08,20,03,31,13.60
2011,08,20,03,32,13.60
2011,08,20,03,33,13.60
2011,08,20,03,34,13.60
2011,08,20,03,35,13.60
2011,08,20,03,36,13.60
2011,08,20,03,37,13.60
2011,08,20,03,38,13.60
2011,08,20,03,39,13.60
2011,08,20,03,40,13.60
2011,08,20,03,41,13.60
2011,08,20,03,42,13.60
2011,08,20,03,43,13.60
2011,08,20,03,44,13.60
2011,08,20,03,45,13.60
2011,08,20,03,46,13.60
2011,08,20,03,47,13.60
2011,08,20,03,48,13.70
2011,08,20,03,49,13.70
2011,08,20,03,50,13.80
2011,08,20,03,51,13.80
2011,08,20,03,52,13.80
2011,08,20,03,53,13.90
2011,08,20,03,54,13.90
2011,08,20,03,55,13.90
2011,08,20,03,56,13.90
2011,08,20,03,57,13.90
2011,08,20,03,58,13.80
2011,08,20,03,59,13.80
2011,08,20,04,00,13.80
2011,08,20,04,01,13.80
2011,08,20,04,02,13.80
2011,08,20,04,03,13.80
2011,08,20,04,04,13.70
2011,08,20,04,05,13.70
2011,08,20,04,06,13.70
2011,08,20,04,07,13.70
2011,08,20,04,08,13.70
2011,08,20,04,09,13.70
2011,08,20,04,10,13.70
2011,08,20,04,11,13.70
2011,08,20,04,12,13.70
2011,08,20,04,13,13.80
2011,08,20,04,14,13.80
2011,08,20,04,15,13.80
2011,08,20,04,16,13.80
2011,08,20,04,17,13.90
2011,08,20,04,18,13.90
2011,08,20,04,19,13.90
2011,08,20,04,20,13.80
2011,08,20,04,21,13.80
2011,08,20,04,22,13.80
2011,08,20,04,23,13.80
2011,08,20,04,24,13.80
2011,08,20,04,25,13.80
2011,08,20,04,26,13.80
2011,08,20,04,27,13.80
2011,08,20,04,28,13.80
2011,08,20,04,29,13.80
2011,08,20,04,30,13.80
2011,08,20,04,31,13.80
2011,08,20,04,32,13.80
2011,08,20,04,33,13.80
2011,08,20,04,34,13.80
2011,08,20,04,35,13.80
2011,08,20,04,36,13.80
2011,08,20,04,37,13.80
2011,08,20,04,38,13.80
2011,08,20,04,39,13.90
2011,08,20,04,40,13.90
2011,08,20,04,41,14.00
2011,08,20,04,42,14.00
2011,08,20,04,43,14.10
2011,08,20,04,44,14.10
2011,08,20,04,45,14.10
2011,08,20,04,46,14.10
2011,08,20,04,47,14.10
2011,08,20,04,48,14.10
2011,08,20,04,49,14.10
2011,08,20,04,50,14.10
2011,08,20,04,51,14.10
2011,08,20,04,52,14.10
2011,08,20,04,53,14.00
2011,08,20,04,54,13.90
2011,08,20,04,55,13.90
2011,08,20,04,56,13.90
2011,08,20,04,57,13.80
2011,08,20,04,58,13.80
2011,08,20,04,59,13.80
2011,08,20,05,00,13.80
2011,08,20,05,01,13.70
2011,08,20,05,02,13.70
2011,08,20,05,03,13.80
2011,08,20,05,04,13.80
2011,08,20,05,05,13.80
2011,08,20,05,06,13.80
2011,08,20,05,07,13.90
2011,08,20,05,08,13.90
2011,08,20,05,09,13.90
2011,08,20,05,10,14.00
2011,08,20,05,11,14.00
2011,08,20,05,12,14.10
2011,08,20,05,13,14.10
2011,08,20,05,14,14.20
2011,08,20,05,15,14.20
2011,08,20,05,16,14.20
2011,08,20,05,17,14.20
2011,08,20,05,18,14.30
2011,08,20,05,19,14.30
2011,08,20,05,20,14.30
2011,08,20,05,21,14.40
2011,08,20,05,22,14.40
2011,08,20,05,23,14.50
2011,08,20,05,24,14.60
2011,08,20,05,25,14.60
2011,08,20,05,26,14.70
2011,08,20,05,27,14.70
2011,08,20,05,28,14.70
2011,08,20,05,29,14.70
2011,08,20,05,30,14.70
2011,08,20,05,31,14.70
2011,08,20,05,32,14.70
2011,08,20,05,33,14.60
2011,08,20,05,34,14.70
2011,08,20,05,35,14.70
2011,08,20,05,36,14.70
2011,08,20,05,37,14.80
2011,08,20,05,38,14.70
2011,08,20,05,39,14.70
2011,08,20,05,40,14.70
2011,08,20,05,41,14.70
2011,08,20,05,42,14.70
2011,08,20,05,43,14.70
2011,08,20,05,44,14.70
2011,08,20,05,45,14.70
2011,08,20,05,46,14.70
2011,08,20,05,47,14.70
2011,08,20,05,48,14.70
2011,08,20,05,49,14.70
2011,08,20,05,50,14.70
2011,08,20,05,51,14.70
2011,08,20,05,52,14.70
2011,08,20,05,53,14.70
2011,08,20,05,54,14.60
2011,08,20,05,55,14.60
2011,08,20,05,56,14.60
2011,08,20,05,57,14.60
2011,08,20,05,58,14.60
2011,08,20,05,59,14.60
2011,08,20,06,00,14.60
2011,08,20,06,01,14.60
2011,08,20,06,02,14.60
2011,08,20,06,03,14.60
2011,08,20,06,04,14.60
2011,08,20,06,05,14.60
2011,08,20,06,06,14.50
2011,08,20,06,07,14.50
2011,08,20,06,08,14.50
2011,08,20,06,09,14.50
2011,08,20,06,10,14.50
2011,08,20,06,11,14.50
2011,08,20,06,12,14.50
2011,08,20,06,13,14.50
2011,08,20,06,14,14.40
2011,08,20,06,15,14.40
2011,08,20,06,16,14.40
2011,08,20,06,17,14.40
2011,08,20,06,18,14.40
2011,08,20,06,19,14.40
2011,08,20,06,20,14.40
2011,08,20,06,21,14.40
2011,08,20,06,22,14.40
2011,08,20,06,23,14.40
2011,08,20,06,24,14.40
2011,08,20,06,25,14.40
2011,08,20,06,26,14.40
2011,08,20,06,27,14.40
2011,08,20,06,28,14.40
2011,08,20,06,29,14.40
2011,08,20,06,30,14.40
2011,08,20,06,31,14.40
2011,08,20,06,32,14.40
2011,08,20,06,33,14.40
2011,08,20,06,34,14.40
2011,08,20,06,35,14.40
2011,08,20,06,36,14.40
2011,08,20,06,37,14.40
2011,08,20,06,38,14.40
2011,08,20,06,39,14.40
2011,08,20,06,40,14.40
2011,08,20,06,41,14.40
2011,08,20,06,42,14.30
2011,08,20,06,43,14.40
2011,08,20,06,44,14.40
2011,08,20,06,45,14.40
2011,08,20,06,46,14.40
2011,08,20,06,47,14.40
2011,08,20,06,48,14.50
2011,08,20,06,49,14.50
2011,08,20,06,50,14.50
2011,08,20,06,51,14.50
2011,08,20,06,52,14.60
2011,08,20,06,53,14.60
2011,08,20,06,54,14.60
2011,08,20,06,55,14.60
2011,08,20,06,56,14.60
2011,08,20,06,57,14.70
2011,08,20,06,58,14.70
2011,08,20,06,59,14.70
2011,08,20,07,00,14.70
2011,08,20,07,01,14.70
2011,08,20,07,02,14.80
2011,08,20,07,03,14.80
2011,08,20,07,04,14.80
2011,08,20,07,05,14.90
2011,08,20,07,06,14.90
2011,08,20,07,07,15.00
2011,08,20,07,08,15.00
2011,08,20,07,09,15.00
2011,08,20,07,10,15.00
2011,08,20,07,11,15.00
2011,08,20,07,12,15.00
2011,08,20,07,13,15.00
2011,08,20,07,14,15.00
2011,08,20,07,15,15.00
2011,08,20,07,16,15.00
2011,08,20,07,17,15.00
2011,08,20,07,18,15.00
2011,08,20,07,19,15.10
2011,08,20,07,20,15.10
2011,08,20,07,21,15.10
2011,08,20,07,22,15.20
2011,08,20,07,23,15.20
2011,08,20,07,24,15.20
2011,08,20,07,25,15.20
2011,08,20,07,26,15.20
2011,08,20,07,27,15.20
2011,08,20,07,28,15.20
2011,08,20,07,29,15.30
2011,08,20,07,30,15.30
2011,08,20,07,31,15.30
2011,08,20,07,32,15.30
2011,08,20,07,33,15.30
2011,08,20,07,34,15.30
2011,08,20,07,35,15.30
2011,08,20,07,36,15.30
2011,08,20,07,37,15.20
2011,08,20,07,38,15.30
2011,08,20,07,39,15.40
2011,08,20,07,40,15.40
2011,08,20,07,41,15.50
2011,08,20,07,42,15.60
2011,08,20,07,43,15.60
2011,08,20,07,44,15.70
2011,08,20,07,45,15.70
2011,08,20,07,46,15.70
2011,08,20,07,47,15.70
2011,08,20,07,48,15.70
2011,08,20,07,49,15.70
2011,08,20,07,50,15.70
2011,08,20,07,51,15.70
2011,08,20,07,52,15.70
2011,08,20,07,53,15.70
2011,08,20,07,54,15.70
2011,08,20,07,55,15.70
2011,08,20,07,56,15.70
2011,08,20,07,57,15.70
2011,08,20,07,58,15.70
2011,08,20,07,59,15.70
2011,08,20,08,00,15.70
2011,08,20,08,01,15.70
2011,08,20,08,02,15.70
2011,08,20,08,03,15.70
2011,08,20,08,04,15.70
2011,08,20,08,05,15.80
2011,08,20,08,06,15.80
2011,08,20,08,07,15.80
2011,08,20,08,08,15.80
2011,08,20,08,09,15.80
2011,08,20,08,10,15.90
2011,08,20,08,11,15.90
2011,08,20,08,12,15.90
2011,08,20,08,13,16.00
2011,08,20,08,14,16.00
2011,08,20,08,15,16.10
2011,08,20,08,16,16.10
2011,08,20,08,17,16.10
2011,08,20,08,18,16.20
2011,08,20,08,19,16.20
2011,08,20,08,20,16.30
2011,08,20,08,21,16.30
2011,08,20,08,22,16.40
2011,08,20,08,23,16.40
2011,08,20,08,24,16.50
2011,08,20,08,25,16.50
2011,08,20,08,26,16.60
2011,08,20,08,27,16.60
2011,08,20,08,28,16.70
2011,08,20,08,29,16.70
2011,08,20,08,30,16.80
2011,08,20,08,31,16.80
2011,08,20,08,32,16.90
2011,08,20,08,33,16.90
2011,08,20,08,34,17.00
2011,08,20,08,35,17.10
2011,08,20,08,36,17.30
2011,08,20,08,37,17.50
2011,08,20,08,38,17.60
2011,08,20,08,39,17.80
2011,08,20,08,40,17.90
2011,08,20,08,41,18.00
2011,08,20,08,42,18.00
2011,08,20,08,43,18.20
2011,08,20,08,44,18.30
2011,08,20,08,45,18.30
2011,08,20,08,46,18.40
2011,08,20,08,47,18.50
2011,08,20,08,48,18.50
2011,08,20,08,49,18.60
2011,08,20,08,50,18.70
2011,08,20,08,51,18.70
2011,08,20,08,52,18.80
2011,08,20,08,53,18.80
2011,08,20,08,54,18.90
2011,08,20,08,55,18.90
2011,08,20,08,56,18.90
2011,08,20,08,57,19.00
2011,08,20,08,58,19.00
2011,08,20,08,59,19.10
2011,08,20,09,00,19.10
2011,08,20,09,01,19.10
2011,08,20,09,02,19.10
2011,08,20,09,03,19.10
2011,08,20,09,04,19.10
2011,08,20,09,05,19.20
2011,08,20,09,06,19.20
2011,08,20,09,07,19.20
2011,08,20,09,08,19.30
2011,08,20,09,09,19.30
2011,08,20,09,10,19.30
2011,08,20,09,11,19.30
2011,08,20,09,12,19.30
2011,08,20,09,13,19.30
2011,08,20,09,14,19.40
2011,08,20,09,15,19.40
2011,08,20,09,16,19.40
2011,08,20,09,17,19.40
2011,08,20,09,18,19.40
2011,08,20,09,19,19.40
2011,08,20,09,20,19.40
2011,08,20,09,21,19.40
2011,08,20,09,22,19.50
2011,08,20,09,23,19.50
2011,08,20,09,24,19.50
2011,08,20,09,25,19.50
2011,08,20,09,26,19.50
2011,08,20,09,27,19.50
2011,08,20,09,28,19.50
2011,08,20,09,29,19.50
2011,08,20,09,30,19.50
2011,08,20,09,31,19.50
2011,08,20,09,32,19.60
2011,08,20,09,33,19.60
2011,08,20,09,34,19.60
2011,08,20,09,35,19.70
2011,08,20,09,36,19.70
2011,08,20,09,37,19.70
2011,08,20,09,38,19.80
2011,08,20,09,39,19.80
2011,08,20,09,40,19.80
2011,08,20,09,41,19.90
2011,08,20,09,42,19.90
2011,08,20,09,43,20.00
2011,08,20,09,44,20.00
2011,08,20,09,45,20.10
2011,08,20,09,46,20.10
2011,08,20,09,47,20.20
2011,08,20,09,48,20.30
2011,08,20,09,49,20.30
2011,08,20,09,50,20.40
2011,08,20,09,51,20.40
2011,08,20,09,52,20.40
2011,08,20,09,53,20.50
2011,08,20,09,54,20.50
2011,08,20,09,55,20.50
2011,08,20,09,56,20.50
2011,08,20,09,57,20.60
2011,08,20,09,58,20.60
2011,08,20,09,59,20.60
2011,08,20,10,00,20.60
2011,08,20,10,01,20.60
2011,08,20,10,02,20.60
2011,08,20,10,03,20.60
2011,08,20,10,04,20.60
2011,08,20,10,05,20.60
2011,08,20,10,06,20.60
2011,08,20,10,07,20.70
2011,08,20,10,08,20.70
2011,08,20,10,09,20.70
2011,08,20,10,10,20.70
2011,08,20,10,11,20.70
2011,08,20,10,12,20.80
2011,08,20,10,13,20.80
2011,08,20,10,14,20.90
2011,08,20,10,15,20.90
2011,08,20,10,16,20.90
2011,08,20,10,17,20.90
2011,08,20,10,18,20.90
2011,08,20,10,19,20.80
2011,08,20,10,20,20.80
2011,08,20,10,21,20.80
2011,08,20,10,22,20.80
2011,08,20,10,23,20.80
2011,08,20,10,24,20.90
2011,08,20,10,25,20.90
2011,08,20,10,26,20.90
2011,08,20,10,27,20.90
2011,08,20,10,28,20.90
2011,08,20,10,29,21.00
2011,08,20,10,30,21.00
2011,08,20,10,31,21.10
2011,08,20,10,32,21.10
2011,08,20,10,33,21.10
2011,08,20,10,34,21.20
2011,08,20,10,35,21.20
2011,08,20,10,36,21.30
2011,08,20,10,37,21.30
2011,08,20,10,38,21.40
2011,08,20,10,39,21.40
2011,08,20,10,40,21.40
2011,08,20,10,41,21.40
2011,08,20,10,42,21.40
2011,08,20,10,43,21.40
2011,08,20,10,44,21.50
2011,08,20,10,45,21.60
2011,08,20,10,46,21.70
2011,08,20,10,47,21.80
2011,08,20,10,48,21.80
2011,08,20,10,49,21.80
2011,08,20,10,50,21.70
2011,08,20,10,51,21.70
2011,08,20,10,52,21.70
2011,08,20,10,53,21.70
2011,08,20,10,54,21.80
2011,08,20,10,55,21.80
2011,08,20,10,56,21.90
2011,08,20,10,57,22.00
2011,08,20,10,58,22.10
2011,08,20,10,59,22.10
2011,08,20,11,00,22.10
2011,08,20,11,01,22.10
2011,08,20,11,02,22.10
2011,08,20,11,03,22.10
2011,08,20,11,04,22.20
2011,08,20,11,05,22.20
2011,08,20,11,06,22.30
2011,08,20,11,07,22.30
2011,08,20,11,08,22.40
2011,08,20,11,09,22.50
2011,08,20,11,10,22.60
2011,08,20,11,11,22.60
2011,08,20,11,12,22.60
2011,08,20,11,13,22.50
2011,08,20,11,14,22.50
2011,08,20,11,15,22.40
2011,08,20,11,16,22.40
2011,08,20,11,17,22.40
2011,08,20,11,18,22.50
2011,08,20,11,19,22.50
2011,08,20,11,20,22.40
2011,08,20,11,21,22.40
2011,08,20,11,22,22.40
2011,08,20,11,23,22.40
2011,08,20,11,24,22.40
2011,08,20,11,25,22.30
2011,08,20,11,26,22.30
2011,08,20,11,27,22.30
2011,08,20,11,28,22.30
2011,08,20,11,29,22.30
2011,08,20,11,30,22.30
2011,08,20,11,31,22.30
2011,08,20,11,32,22.30
2011,08,20,11,33,22.30
2011,08,20,11,34,22.30
2011,08,20,11,35,22.40
2011,08,20,11,36,22.40
2011,08,20,11,37,22.50
2011,08,20,11,38,22.60
2011,08,20,11,39,22.70
2011,08,20,11,40,22.80
2011,08,20,11,41,22.90
2011,08,20,11,42,22.90
2011,08,20,11,43,23.00
2011,08,20,11,44,23.00
2011,08,20,11,45,23.10
2011,08,20,11,46,23.20
2011,08,20,11,47,23.30
2011,08,20,11,48,23.40
2011,08,20,11,49,23.50
2011,08,20,11,50,23.50
2011,08,20,11,51,23.60
2011,08,20,11,52,23.50
2011,08,20,11,53,23.50
2011,08,20,11,54,23.50
2011,08,20,11,55,23.60
2011,08,20,11,56,23.70
2011,08,20,11,57,23.80
2011,08,20,11,58,23.80
2011,08,20,11,59,23.90
2011,08,20,12,00,24.00
2011,08,20,12,01,24.10
2011,08,20,12,02,24.20
2011,08,20,12,03,24.30
2011,08,20,12,04,24.30
2011,08,20,12,05,24.30
2011,08,20,12,06,24.10
2011,08,20,12,07,24.00
2011,08,20,12,08,23.90
2011,08,20,12,09,23.90
2011,08,20,12,10,23.80
2011,08,20,12,11,23.80
2011,08,20,12,12,23.90
2011,08,20,12,13,23.90
2011,08,20,12,14,23.80
2011,08,20,12,15,23.80
2011,08,20,12,16,23.70
2011,08,20,12,17,23.70
2011,08,20,12,18,23.70
2011,08,20,12,19,23.60
2011,08,20,12,20,23.50
2011,08,20,12,21,23.40
2011,08,20,12,22,23.40
2011,08,20,12,23,23.50
2011,08,20,12,24,23.70
2011,08,20,12,25,23.80
2011,08,20,12,26,23.90
2011,08,20,12,27,24.00
2011,08,20,12,28,24.10
2011,08,20,12,29,24.20
2011,08,20,12,30,24.30
2011,08,20,12,31,24.30
2011,08,20,12,32,24.50
2011,08,20,12,33,24.60
2011,08,20,12,34,24.80
2011,08,20,12,35,24.80
2011,08,20,12,36,24.90
2011,08,20,12,37,25.00
2011,08,20,12,38,25.10
2011,08,20,12,39,25.10
2011,08,20,12,40,25.10
2011,08,20,12,41,25.20
2011,08,20,12,42,25.10
2011,08,20,12,43,25.00
2011,08,20,12,44,24.80
2011,08,20,12,45,24.70
2011,08,20,12,46,24.50
2011,08,20,12,47,24.30
2011,08,20,12,48,24.10
2011,08,20,12,49,24.00
2011,08,20,12,50,24.00
2011,08,20,12,51,23.90
2011,08,20,12,52,23.90
2011,08,20,12,53,24.00
2011,08,20,12,54,24.10
2011,08,20,12,55,24.10
2011,08,20,12,56,24.10
2011,08,20,12,57,24.20
2011,08,20,12,58,24.40
2011,08,20,12,59,24.50
2011,08,20,13,00,24.60
2011,08,20,13,01,24.70
2011,08,20,13,02,24.60
2011,08,20,13,03,24.60
2011,08,20,13,04,24.70
2011,08,20,13,05,24.70
2011,08,20,13,06,24.80
2011,08,20,13,07,24.80
2011,08,20,13,08,24.90
2011,08,20,13,09,24.90
2011,08,20,13,10,24.90
2011,08,20,13,11,25.00
2011,08,20,13,12,25.10
2011,08,20,13,13,25.20
2011,08,20,13,14,25.30
2011,08,20,13,15,25.40
2011,08,20,13,16,25.40
2011,08,20,13,17,25.40
2011,08,20,13,18,25.50
2011,08,20,13,19,25.50
2011,08,20,13,20,25.30
2011,08,20,13,21,25.40
2011,08,20,13,22,25.50
2011,08,20,13,23,25.50
2011,08,20,13,24,25.50
2011,08,20,13,25,25.60
2011,08,20,13,26,25.60
2011,08,20,13,27,25.70
2011,08,20,13,28,25.80
2011,08,20,13,29,25.90
2011,08,20,13,30,25.90
2011,08,20,13,31,25.90
2011,08,20,13,32,25.90
2011,08,20,13,33,25.90
2011,08,20,13,34,25.80
2011,08,20,13,35,25.80
2011,08,20,13,36,25.70
2011,08,20,13,37,25.80
2011,08,20,13,38,25.80
2011,08,20,13,39,25.80
2011,08,20,13,40,25.80
2011,08,20,13,41,25.80
2011,08,20,13,42,25.80
2011,08,20,13,43,25.90
2011,08,20,13,44,25.90
2011,08,20,13,45,25.80
2011,08,20,13,46,25.80
2011,08,20,13,47,25.90
2011,08,20,13,48,25.90
2011,08,20,13,49,25.90
2011,08,20,13,50,25.90
2011,08,20,13,51,26.10
2011,08,20,13,52,26.20
2011,08,20,13,53,26.20
2011,08,20,13,54,26.20
2011,08,20,13,55,26.10
2011,08,20,13,56,26.20
2011,08,20,13,57,26.20
2011,08,20,13,58,26.10
2011,08,20,13,59,26.10
2011,08,20,14,00,26.10
2011,08,20,14,01,26.10
2011,08,20,14,02,26.00
2011,08,20,14,03,25.90
2011,08,20,14,04,25.90
2011,08,20,14,05,25.90
2011,08,20,14,06,25.90
2011,08,20,14,07,25.90
2011,08,20,14,08,25.90
2011,08,20,14,09,25.80
2011,08,20,14,10,25.70
2011,08,20,14,11,25.70
2011,08,20,14,12,25.70
2011,08,20,14,13,25.80
2011,08,20,14,14,25.90
2011,08,20,14,15,26.00
2011,08,20,14,16,26.10
2011,08,20,14,17,26.20
2011,08,20,14,18,26.30
2011,08,20,14,19,26.50
2011,08,20,14,20,26.70
2011,08,20,14,21,26.80
2011,08,20,14,22,26.80
2011,08,20,14,23,26.80
2011,08,20,14,24,26.80
2011,08,20,14,25,26.90
2011,08,20,14,26,27.10
2011,08,20,14,27,27.20
2011,08,20,14,28,27.20
2011,08,20,14,29,27.10
2011,08,20,14,30,27.10
2011,08,20,14,31,27.00
2011,08,20,14,32,26.90
2011,08,20,14,33,26.90
2011,08,20,14,34,27.00
2011,08,20,14,35,27.00
2011,08,20,14,36,27.10
2011,08,20,14,37,27.10
2011,08,20,14,38,27.20
2011,08,20,14,39,27.30
2011,08,20,14,40,27.30
2011,08,20,14,41,27.40
2011,08,20,14,42,27.50
2011,08,20,14,43,27.60
2011,08,20,14,44,27.70
2011,08,20,14,45,27.80
2011,08,20,14,46,27.80
2011,08,20,14,47,27.80
2011,08,20,14,48,27.80
2011,08,20,14,49,27.70
2011,08,20,14,50,27.80
2011,08,20,14,51,27.80
2011,08,20,14,52,27.70
2011,08,20,14,53,27.70
2011,08,20,14,54,27.80
2011,08,20,14,55,27.90
2011,08,20,14,56,27.90
2011,08,20,14,57,27.80
2011,08,20,14,58,27.60
2011,08,20,14,59,27.40
2011,08,20,15,00,27.30
2011,08,20,15,01,27.20
2011,08,20,15,02,27.20
2011,08,20,15,03,27.30
2011,08,20,15,04,27.40
2011,08,20,15,05,27.50
2011,08,20,15,06,27.60
2011,08,20,15,07,27.50
2011,08,20,15,08,27.40
2011,08,20,15,09,27.30
2011,08,20,15,10,27.20
2011,08,20,15,11,27.10
2011,08,20,15,12,27.20
2011,08,20,15,13,27.10
2011,08,20,15,14,27.10
2011,08,20,15,15,27.10
2011,08,20,15,16,27.20
2011,08,20,15,17,27.30
2011,08,20,15,18,27.40
2011,08,20,15,19,27.40
2011,08,20,15,20,27.40
2011,08,20,15,21,27.50
2011,08,20,15,22,27.60
2011,08,20,15,23,27.60
2011,08,20,15,24,27.80
2011,08,20,15,25,27.90
2011,08,20,15,26,28.00
2011,08,20,15,27,28.10
2011,08,20,15,28,28.20
2011,08,20,15,29,28.30
2011,08,20,15,30,28.30
2011,08,20,15,31,28.30
2011,08,20,15,32,28.30
2011,08,20,15,33,28.30
2011,08,20,15,34,28.20
2011,08,20,15,35,28.20
2011,08,20,15,36,28.20
2011,08,20,15,37,28.30
2011,08,20,15,38,28.30
2011,08,20,15,39,28.30
2011,08,20,15,40,28.30
2011,08,20,15,41,28.30
2011,08,20,15,42,28.30
2011,08,20,15,43,28.20
2011,08,20,15,44,28.10
2011,08,20,15,45,28.10
2011,08,20,15,46,28.20
2011,08,20,15,47,28.30
2011,08,20,15,48,28.40
2011,08,20,15,49,28.30
2011,08,20,15,50,28.40
2011,08,20,15,51,28.50
2011,08,20,15,52,28.50
2011,08,20,15,53,28.60
2011,08,20,15,54,28.60
2011,08,20,15,55,28.50
2011,08,20,15,56,28.40
2011,08,20,15,57,28.10
2011,08,20,15,58,27.90
2011,08,20,15,59,27.70
2011,08,20,16,00,27.70
2011,08,20,16,01,27.70
2011,08,20,16,02,27.70
2011,08,20,16,03,27.70
2011,08,20,16,04,27.70
2011,08,20,16,05,27.80
2011,08,20,16,06,27.90
2011,08,20,16,07,28.00
2011,08,20,16,08,28.20
2011,08,20,16,09,28.20
2011,08,20,16,10,28.30
2011,08,20,16,11,28.40
2011,08,20,16,12,28.40
2011,08,20,16,13,28.40
2011,08,20,16,14,28.40
2011,08,20,16,15,28.40
2011,08,20,16,16,28.30
2011,08,20,16,17,28.20
2011,08,20,16,18,28.00
2011,08,20,16,19,28.00
2011,08,20,16,20,27.90
2011,08,20,16,21,27.80
2011,08,20,16,22,27.80
2011,08,20,16,23,27.80
2011,08,20,16,24,27.80
2011,08,20,16,25,27.90
2011,08,20,16,26,28.00
2011,08,20,16,27,28.10
2011,08,20,16,28,28.00
2011,08,20,16,29,28.00
2011,08,20,16,30,28.00
2011,08,20,16,31,27.90
2011,08,20,16,32,27.90
2011,08,20,16,33,27.80
2011,08,20,16,34,27.70
2011,08,20,16,35,27.70
2011,08,20,16,36,27.70
2011,08,20,16,37,27.70
2011,08,20,16,38,27.70
2011,08,20,16,39,27.60
2011,08,20,16,40,27.60
2011,08,20,16,41,27.60
2011,08,20,16,42,27.60
2011,08,20,16,43,27.50
2011,08,20,16,44,27.40
2011,08,20,16,45,27.20
2011,08,20,16,46,27.10
2011,08,20,16,47,27.00
2011,08,20,16,48,26.90
2011,08,20,16,49,26.80
2011,08,20,16,50,26.70
2011,08,20,16,51,26.70
2011,08,20,16,52,26.60
2011,08,20,16,53,26.60
2011,08,20,16,54,26.70
2011,08,20,16,55,26.60
2011,08,20,16,56,26.60
2011,08,20,16,57,26.60
2011,08,20,16,58,26.60
2011,08,20,16,59,26.60
2011,08,20,17,00,26.60
2011,08,20,17,01,26.50
2011,08,20,17,02,26.40
2011,08,20,17,03,26.30
2011,08,20,17,04,26.30
2011,08,20,17,05,26.20
2011,08,20,17,06,26.20
2011,08,20,17,07,26.20
2011,08,20,17,08,26.20
2011,08,20,17,09,26.20
2011,08,20,17,10,26.20
2011,08,20,17,11,26.30
2011,08,20,17,12,26.40
2011,08,20,17,13,26.50
2011,08,20,17,14,26.60
2011,08,20,17,15,26.60
2011,08,20,17,16,26.60
2011,08,20,17,17,26.70
2011,08,20,17,18,26.80
2011,08,20,17,19,26.90
2011,08,20,17,20,27.00
2011,08,20,17,21,27.00
2011,08,20,17,22,27.00